Location: Zagreb
(45.8000°N, 16.0000°E)
Time: 14:22:21
(UTC+02:00)

Vanguard 1 - Pass Details

Date: 12 August 2022
Orbit: 649 x 3832 km, 34.2° (Epoch: 25 September)

Event Time Altitude Azimuth Distance (km) Brightness Sun altitude
Rises 06:21:20 0° 248° (WSW) 6,111 13.4 4.0°
Reaches altitude 10° 06:24:50 10° 244° (WSW) 5,446 13.2 4.5°
Maximum altitude 06:42:27 59° 171° (S) 3,974 13.2 7.5°
Drops below altitude 10° 07:05:08 10° 101° (E) 6,790 16.0 11.4°
Sets 07:10:09 0° 98° (E) 7,627 16.2 12.2°
